Вернуться в каталог

COSMOS 1869

АктивенВоенныеPO
NORAD 18214·PAYLOAD·🇷🇺 Russia

Запущен Jul 16, 1987 с Plesetsk Cosmodrome

Loading…

Ближайшие Пролёты (ближайшие 24 часа)

TLE

СвежийSource: Space-Track

Эпоха: Sep 14, 2026, 21:18 UTC

1 18214U 87062A   26257.88782837  .00011235  00000-0  28948-3 0  9998
2 18214  82.5132   9.0353 0017731 101.8151 258.5085 15.38891455118355

Отслеживайте COSMOS 1869 в реальном времени с AllMySat

Download on the App Store